contact:dominique.lefevre@mio.osupytheas.fr, maurice.libes@osupytheas.fr, didier.mallarino@osupytheas.fr
Project:EMSO http://www.emso-fr.org/EMSO-France
Depth: 2436.0 m
Title:EMSO Ligure Ouest : Data MII capteur MICROCAT
DateTime_Computer,Latitude,Longitude,Temperature,Conductivity,Pressure,DateTime_Instrument
DateTime_Computer,Latitude,Longitude,degC,S m-1,dbar,DateTime_Instrument
2023-09-07T00:01:47Z,42.805,6.029,13.3050,4.60142,2470.824,2023-9-07T02:04:08Z
2023-09-07T00:04:50Z,42.805,6.029,13.3041,4.60141,2470.81,2023-9-07T02:07:11Z
2023-09-07T00:07:53Z,42.805,6.029,13.3041,4.60125,2470.777,2023-9-07T02:10:14Z
2023-09-07T00:10:56Z,42.805,6.029,13.3043,4.60144,2470.833,2023-9-07T02:13:17Z
2023-09-07T00:13:59Z,42.805,6.029,13.3046,4.60145,2470.787,2023-9-07T02:16:20Z
2023-09-07T00:17:02Z,42.805,6.029,13.3047,4.60136,2470.81,2023-9-07T02:19:23Z
2023-09-07T00:20:05Z,42.805,6.029,13.3049,4.60137,2470.824,2023-9-07T02:22:27Z
2023-09-07T00:23:08Z,42.805,6.029,13.3050,4.60146,2470.787,2023-9-07T02:25:30Z
2023-09-07T00:26:11Z,42.805,6.029,13.3056,4.60125,2470.824,2023-9-07T02:28:33Z
2023-09-07T00:29:15Z,42.805,6.029,13.3045,4.60140,2470.847,2023-9-07T02:31:36Z
2023-09-07T00:32:18Z,42.805,6.029,13.3051,4.60139,2470.824,2023-9-07T02:34:39Z
2023-09-07T00:35:21Z,42.805,6.029,13.3046,4.60140,2470.824,2023-9-07T02:37:42Z
2023-09-07T00:38:24Z,42.805,6.029,13.3051,4.60125,2470.787,2023-9-07T02:40:45Z
2023-09-07T00:41:27Z,42.805,6.029,13.3045,4.60114,2470.763,2023-9-07T02:43:48Z
2023-09-07T00:44:30Z,42.805,6.029,13.3043,4.60126,2470.787,2023-9-07T02:46:51Z
2023-09-07T00:47:33Z,42.805,6.029,13.3045,4.60127,2470.787,2023-9-07T02:49:54Z
2023-09-07T00:50:36Z,42.805,6.029,13.3043,4.60128,2470.824,2023-9-07T02:52:57Z
2023-09-07T00:53:39Z,42.805,6.029,13.3043,4.60125,2470.787,2023-9-07T02:56:00Z
2023-09-07T00:56:42Z,42.805,6.029,13.3047,4.60132,2470.763,2023-9-07T02:59:04Z
2023-09-07T00:59:45Z,42.805,6.029,13.3048,4.60151,2470.8,2023-9-07T03:02:07Z
2023-09-07T01:02:48Z,42.805,6.029,13.3041,4.60122,2470.824,2023-9-07T03:05:10Z
2023-09-07T01:05:51Z,42.805,6.029,13.3036,4.60123,2470.81,2023-9-07T03:08:13Z
2023-09-07T01:08:55Z,42.805,6.029,13.3040,4.60119,2470.824,2023-9-07T03:11:16Z
2023-09-07T01:11:58Z,42.805,6.029,13.3042,4.60134,2470.81,2023-9-07T03:14:19Z
2023-09-07T01:15:01Z,42.805,6.029,13.3037,4.60125,2470.763,2023-9-07T03:17:22Z
2023-09-07T01:18:04Z,42.805,6.029,13.3041,4.60119,2470.787,2023-9-07T03:20:25Z
2023-09-07T01:21:07Z,42.805,6.029,13.3039,4.60122,2470.824,2023-9-07T03:23:28Z
2023-09-07T01:24:10Z,42.805,6.029,13.3044,4.60129,2470.75,2023-9-07T03:26:31Z
2023-09-07T01:27:13Z,42.805,6.029,13.3040,4.60134,2470.763,2023-9-07T03:29:34Z
2023-09-07T01:30:16Z,42.805,6.029,13.3036,4.60119,2470.787,2023-9-07T03:32:37Z
2023-09-07T01:33:19Z,42.805,6.029,13.3036,4.60128,2470.74,2023-9-07T03:35:40Z
2023-09-07T01:36:22Z,42.805,6.029,13.3037,4.60122,2470.777,2023-9-07T03:38:44Z
2023-09-07T01:39:25Z,42.805,6.029,13.3040,4.60115,2470.8,2023-9-07T03:41:47Z
2023-09-07T01:42:28Z,42.805,6.029,13.3046,4.60137,2470.74,2023-9-07T03:44:50Z
2023-09-07T01:45:32Z,42.805,6.029,13.3036,4.60112,2470.763,2023-9-07T03:47:53Z
2023-09-07T01:48:35Z,42.805,6.029,13.3036,4.60117,2470.787,2023-9-07T03:50:56Z
2023-09-07T01:51:38Z,42.805,6.029,13.3041,4.60124,2470.787,2023-9-07T03:53:59Z
2023-09-07T01:54:41Z,42.805,6.029,13.3041,4.60131,2470.777,2023-9-07T03:57:02Z
2023-09-07T01:57:44Z,42.805,6.029,13.3040,4.60145,2470.777,2023-9-07T04:00:05Z
2023-09-07T02:00:47Z,42.805,6.029,13.3042,4.60127,2470.787,2023-9-07T04:03:08Z
2023-09-07T02:03:50Z,42.805,6.029,13.3038,4.60124,2470.763,2023-9-07T04:06:11Z
2023-09-07T02:06:53Z,42.805,6.029,13.3037,4.60129,2470.81,2023-9-07T04:09:14Z
2023-09-07T02:09:56Z,42.805,6.029,13.3043,4.60125,2470.787,2023-9-07T04:12:17Z
2023-09-07T02:12:59Z,42.805,6.029,13.3041,4.60133,2470.8,2023-9-07T04:15:20Z
2023-09-07T02:16:02Z,42.805,6.029,13.3041,4.60144,2470.754,2023-9-07T04:18:24Z
2023-09-07T02:19:05Z,42.805,6.029,13.3043,4.60135,2470.8,2023-9-07T04:21:27Z
2023-09-07T02:22:08Z,42.805,6.029,13.3037,4.60119,2470.796,2023-9-07T04:24:30Z
2023-09-07T02:25:12Z,42.805,6.029,13.3041,4.60130,2470.787,2023-9-07T04:27:33Z
2023-09-07T02:28:15Z,42.805,6.029,13.3035,4.60121,2470.763,2023-9-07T04:30:36Z
2023-09-07T02:31:18Z,42.805,6.029,13.3038,4.60135,2470.763,2023-9-07T04:33:39Z
2023-09-07T02:34:21Z,42.805,6.029,13.3034,4.60114,2470.787,2023-9-07T04:36:42Z
2023-09-07T02:37:24Z,42.805,6.029,13.3039,4.60127,2470.8,2023-9-07T04:39:45Z
2023-09-07T02:40:27Z,42.805,6.029,13.3043,4.60133,2470.763,2023-9-07T04:42:48Z
2023-09-07T02:43:30Z,42.805,6.029,13.3039,4.60126,2470.763,2023-9-07T04:45:51Z
2023-09-07T02:46:33Z,42.805,6.029,13.3039,4.60127,2470.763,2023-9-07T04:48:54Z
2023-09-07T02:49:36Z,42.805,6.029,13.3037,4.60125,2470.763,2023-9-07T04:51:57Z
2023-09-07T02:52:39Z,42.805,6.029,13.3044,4.60122,2470.8,2023-9-07T04:55:01Z
2023-09-07T02:55:42Z,42.805,6.029,13.3039,4.60130,2470.763,2023-9-07T04:58:04Z
2023-09-07T02:58:45Z,42.805,6.029,13.3036,4.60125,2470.787,2023-9-07T05:01:07Z
2023-09-07T03:01:48Z,42.805,6.029,13.3037,4.60122,2470.777,2023-9-07T05:04:10Z
2023-09-07T03:04:52Z,42.805,6.029,13.3041,4.60120,2470.74,2023-9-07T05:07:13Z
2023-09-07T03:07:55Z,42.805,6.029,13.3041,4.60122,2470.777,2023-9-07T05:10:16Z
2023-09-07T03:10:58Z,42.805,6.029,13.3047,4.60137,2470.777,2023-9-07T05:13:19Z
2023-09-07T03:14:01Z,42.805,6.029,13.3039,4.60122,2470.763,2023-9-07T05:16:22Z
2023-09-07T03:17:04Z,42.805,6.029,13.3061,4.60138,2470.763,2023-9-07T05:19:25Z
2023-09-07T03:20:07Z,42.805,6.029,13.3034,4.60118,2470.777,2023-9-07T05:22:28Z
2023-09-07T03:23:10Z,42.805,6.029,13.3040,4.60120,2470.777,2023-9-07T05:25:31Z
2023-09-07T03:26:13Z,42.805,6.029,13.3039,4.60118,2470.777,2023-9-07T05:28:34Z
2023-09-07T03:29:16Z,42.805,6.029,13.3041,4.60122,2470.777,2023-9-07T05:31:37Z
2023-09-07T03:32:19Z,42.805,6.029,13.3043,4.60114,2470.763,2023-9-07T05:34:41Z
2023-09-07T03:35:22Z,42.805,6.029,13.3039,4.60130,2470.74,2023-9-07T05:37:44Z
2023-09-07T03:38:25Z,42.805,6.029,13.3036,4.60126,2470.777,2023-9-07T05:40:47Z
2023-09-07T03:41:29Z,42.805,6.029,13.3037,4.60123,2470.8,2023-9-07T05:43:50Z
2023-09-07T03:44:32Z,42.805,6.029,13.3036,4.60121,2470.777,2023-9-07T05:46:53Z
2023-09-07T03:47:35Z,42.805,6.029,13.3039,4.60119,2470.777,2023-9-07T05:49:56Z
2023-09-07T03:50:38Z,42.805,6.029,13.3044,4.60122,2470.763,2023-9-07T05:52:59Z
2023-09-07T03:53:41Z,42.805,6.029,13.3044,4.60130,2470.74,2023-9-07T05:56:02Z
2023-09-07T03:56:44Z,42.805,6.029,13.3046,4.60131,2470.763,2023-9-07T05:59:05Z
2023-09-07T03:59:47Z,42.805,6.029,13.3039,4.60125,2470.74,2023-9-07T06:02:08Z
2023-09-07T04:02:50Z,42.805,6.029,13.3035,4.60116,2470.754,2023-9-07T06:05:11Z
2023-09-07T04:05:53Z,42.805,6.029,13.3036,4.60129,2470.74,2023-9-07T06:08:14Z
2023-09-07T04:08:56Z,42.805,6.029,13.3039,4.60123,2470.754,2023-9-07T06:11:17Z
2023-09-07T04:11:59Z,42.805,6.029,13.3036,4.60113,2470.754,2023-9-07T06:14:21Z
2023-09-07T04:15:02Z,42.805,6.029,13.3038,4.60121,2470.754,2023-9-07T06:17:24Z
2023-09-07T04:18:05Z,42.805,6.029,13.3038,4.60114,2470.763,2023-9-07T06:20:27Z
2023-09-07T04:21:09Z,42.805,6.029,13.3036,4.60117,2470.763,2023-9-07T06:23:30Z
2023-09-07T04:24:12Z,42.805,6.029,13.3039,4.60119,2470.777,2023-9-07T06:26:33Z
2023-09-07T04:27:15Z,42.805,6.029,13.3041,4.60121,2470.74,2023-9-07T06:29:36Z
2023-09-07T04:30:18Z,42.805,6.029,13.3035,4.60125,2470.754,2023-9-07T06:32:39Z
2023-09-07T04:33:21Z,42.805,6.029,13.3036,4.60115,2470.73,2023-9-07T06:35:42Z
2023-09-07T04:36:24Z,42.805,6.029,13.3041,4.60125,2470.717,2023-9-07T06:38:45Z
2023-09-07T04:39:27Z,42.805,6.029,13.3041,4.60125,2470.74,2023-9-07T06:41:48Z
2023-09-07T04:42:30Z,42.805,6.029,13.3038,4.60111,2470.717,2023-9-07T06:44:51Z
2023-09-07T04:45:33Z,42.805,6.029,13.3036,4.60128,2470.74,2023-9-07T06:47:54Z
2023-09-07T04:48:36Z,42.805,6.029,13.3043,4.60128,2470.754,2023-9-07T06:50:58Z
2023-09-07T04:51:39Z,42.805,6.029,13.3037,4.60130,2470.754,2023-9-07T06:54:01Z
2023-09-07T04:54:42Z,42.805,6.029,13.3048,4.60131,2470.703,2023-9-07T06:57:04Z
2023-09-07T04:57:45Z,42.805,6.029,13.3041,4.60122,2470.754,2023-9-07T07:00:07Z
2023-09-07T05:00:49Z,42.805,6.029,13.3038,4.60117,2470.763,2023-9-07T07:03:10Z
2023-09-07T05:03:52Z,42.805,6.029,13.3038,4.60120,2470.74,2023-9-07T07:06:13Z
2023-09-07T05:06:55Z,42.805,6.029,13.3038,4.60126,2470.74,2023-9-07T07:09:16Z
2023-09-07T05:09:58Z,42.805,6.029,13.3036,4.60117,2470.74,2023-9-07T07:12:19Z
2023-09-07T05:13:01Z,42.805,6.029,13.3038,4.60120,2470.74,2023-9-07T07:15:22Z
2023-09-07T05:16:04Z,42.805,6.029,13.3039,4.60122,2470.74,2023-9-07T07:18:25Z
2023-09-07T05:19:07Z,42.805,6.029,13.3038,4.60127,2470.707,2023-9-07T07:21:28Z
2023-09-07T05:22:10Z,42.805,6.029,13.3040,4.60125,2470.777,2023-9-07T07:24:31Z
2023-09-07T05:25:13Z,42.805,6.029,13.3036,4.60126,2470.74,2023-9-07T07:27:34Z
2023-09-07T05:28:16Z,42.805,6.029,13.3039,4.60127,2470.754,2023-9-07T07:30:38Z
2023-09-07T05:31:19Z,42.805,6.029,13.3034,4.60109,2470.717,2023-9-07T07:33:41Z
2023-09-07T05:34:22Z,42.805,6.029,13.3033,4.60116,2470.73,2023-9-07T07:36:44Z
2023-09-07T05:37:26Z,42.805,6.029,13.3042,4.60122,2470.717,2023-9-07T07:39:47Z
2023-09-07T05:40:29Z,42.805,6.029,13.3039,4.60121,2470.73,2023-9-07T07:42:50Z
2023-09-07T05:43:32Z,42.805,6.029,13.3034,4.60117,2470.717,2023-9-07T07:45:53Z
2023-09-07T05:46:35Z,42.805,6.029,13.3039,4.60125,2470.717,2023-9-07T07:48:56Z
2023-09-07T05:49:38Z,42.805,6.029,13.3040,4.60135,2470.717,2023-9-07T07:51:59Z
2023-09-07T05:52:41Z,42.805,6.029,13.3044,4.60128,2470.717,2023-9-07T07:55:02Z
2023-09-07T05:55:44Z,42.805,6.029,13.3039,4.60133,2470.73,2023-9-07T07:58:05Z
2023-09-07T05:58:47Z,42.805,6.029,13.3040,4.60119,2470.74,2023-9-07T08:01:08Z
2023-09-07T06:01:50Z,42.805,6.029,13.3039,4.60132,2470.717,2023-9-07T08:04:11Z
2023-09-07T06:04:53Z,42.805,6.029,13.3042,4.60114,2470.74,2023-9-07T08:07:15Z
2023-09-07T06:07:56Z,42.805,6.029,13.3043,4.60129,2470.717,2023-9-07T08:10:18Z
2023-09-07T06:10:59Z,42.805,6.029,13.3037,4.60120,2470.703,2023-9-07T08:13:21Z
2023-09-07T06:14:02Z,42.805,6.029,13.3039,4.60110,2470.73,2023-9-07T08:16:24Z
2023-09-07T06:17:06Z,42.805,6.029,13.3041,4.60126,2470.717,2023-9-07T08:19:27Z
2023-09-07T06:20:09Z,42.805,6.029,13.3042,4.60121,2470.74,2023-9-07T08:22:30Z
2023-09-07T06:23:12Z,42.805,6.029,13.3036,4.60114,2470.74,2023-9-07T08:25:33Z
2023-09-07T06:26:15Z,42.805,6.029,13.3039,4.60110,2470.73,2023-9-07T08:28:36Z
2023-09-07T06:29:18Z,42.805,6.029,13.3034,4.60117,2470.717,2023-9-07T08:31:39Z
2023-09-07T06:32:21Z,42.805,6.029,13.3034,4.60114,2470.693,2023-9-07T08:34:42Z
2023-09-07T06:35:24Z,42.805,6.029,13.3039,4.60112,2470.74,2023-9-07T08:37:45Z
2023-09-07T06:38:27Z,42.805,6.029,13.3037,4.60114,2470.707,2023-9-07T08:40:48Z
2023-09-07T06:41:30Z,42.805,6.029,13.3042,4.60116,2470.717,2023-9-07T08:43:51Z
2023-09-07T06:44:33Z,42.805,6.029,13.3039,4.60116,2470.73,2023-9-07T08:46:55Z
2023-09-07T06:47:36Z,42.805,6.029,13.3045,4.60121,2470.74,2023-9-07T08:49:58Z
2023-09-07T06:50:39Z,42.805,6.029,13.3037,4.60114,2470.74,2023-9-07T08:53:01Z
2023-09-07T06:53:42Z,42.805,6.029,13.3043,4.60129,2470.717,2023-9-07T08:56:04Z
2023-09-07T06:56:46Z,42.805,6.029,13.3041,4.60114,2470.717,2023-9-07T08:59:07Z
2023-09-07T06:59:49Z,42.805,6.029,13.3037,4.60110,2470.754,2023-9-07T09:02:10Z
2023-09-07T07:02:52Z,42.805,6.029,13.3041,4.60126,2470.74,2023-9-07T09:05:13Z
2023-09-07T07:05:55Z,42.805,6.029,13.3041,4.60114,2470.73,2023-9-07T09:08:16Z
2023-09-07T07:08:58Z,42.805,6.029,13.3042,4.60126,2470.703,2023-9-07T09:11:19Z
2023-09-07T07:12:01Z,42.805,6.029,13.3039,4.60110,2470.74,2023-9-07T09:14:22Z
2023-09-07T07:15:04Z,42.805,6.029,13.3039,4.60117,2470.717,2023-9-07T09:17:25Z
2023-09-07T07:18:07Z,42.805,6.029,13.3041,4.60121,2470.717,2023-9-07T09:20:28Z
2023-09-07T07:21:10Z,42.805,6.029,13.3034,4.60117,2470.74,2023-9-07T09:23:31Z
2023-09-07T07:24:13Z,42.805,6.029,13.3038,4.60125,2470.73,2023-9-07T09:26:35Z
2023-09-07T07:27:16Z,42.805,6.029,13.3037,4.60111,2470.73,2023-9-07T09:29:38Z
2023-09-07T07:30:19Z,42.805,6.029,13.3037,4.60119,2470.754,2023-9-07T09:32:41Z
2023-09-07T07:33:23Z,42.805,6.029,13.3040,4.60115,2470.703,2023-9-07T09:35:44Z
2023-09-07T07:36:26Z,42.805,6.029,13.3038,4.60121,2470.717,2023-9-07T09:38:47Z
2023-09-07T07:39:29Z,42.805,6.029,13.3046,4.60110,2470.73,2023-9-07T09:41:50Z
2023-09-07T07:42:32Z,42.805,6.029,13.3039,4.60111,2470.74,2023-9-07T09:44:53Z
2023-09-07T07:45:35Z,42.805,6.029,13.3036,4.60109,2470.73,2023-9-07T09:47:56Z
2023-09-07T07:48:38Z,42.805,6.029,13.3031,4.60115,2470.74,2023-9-07T09:50:59Z
2023-09-07T07:51:41Z,42.805,6.029,13.3035,4.60113,2470.74,2023-9-07T09:54:02Z
2023-09-07T07:54:44Z,42.805,6.029,13.3041,4.60110,2470.763,2023-9-07T09:57:05Z
2023-09-07T07:57:47Z,42.805,6.029,13.3034,4.60115,2470.74,2023-9-07T10:00:08Z
2023-09-07T08:00:50Z,42.805,6.029,13.3035,4.60115,2470.754,2023-9-07T10:03:12Z
2023-09-07T08:03:53Z,42.805,6.029,13.3039,4.60113,2470.754,2023-9-07T10:06:15Z
2023-09-07T08:06:56Z,42.805,6.029,13.3039,4.60131,2470.703,2023-9-07T10:09:18Z
2023-09-07T08:09:59Z,42.805,6.029,13.3034,4.60114,2470.74,2023-9-07T10:12:21Z
2023-09-07T08:13:03Z,42.805,6.029,13.3033,4.60112,2470.73,2023-9-07T10:15:24Z
2023-09-07T08:16:06Z,42.805,6.029,13.3036,4.60111,2470.717,2023-9-07T10:18:27Z
2023-09-07T08:19:09Z,42.805,6.029,13.3038,4.60125,2470.754,2023-9-07T10:21:30Z
2023-09-07T08:22:12Z,42.805,6.029,13.3038,4.60137,2470.74,2023-9-07T10:24:33Z
2023-09-07T08:25:15Z,42.805,6.029,13.3043,4.60127,2470.754,2023-9-07T10:27:36Z
2023-09-07T08:28:18Z,42.805,6.029,13.3038,4.60114,2470.73,2023-9-07T10:30:39Z
2023-09-07T08:31:23Z,42.805,6.029,13.3036,4.60114,2470.74,2023-9-07T10:33:44Z
2023-09-07T08:34:26Z,42.805,6.029,13.3043,4.60115,2470.74,2023-9-07T10:36:47Z
2023-09-07T08:37:29Z,42.805,6.029,13.3046,4.60139,2470.74,2023-9-07T10:39:50Z
2023-09-07T08:40:32Z,42.805,6.029,13.3045,4.60131,2470.717,2023-9-07T10:42:53Z
2023-09-07T08:43:35Z,42.805,6.029,13.3044,4.60117,2470.74,2023-9-07T10:45:56Z
2023-09-07T08:46:38Z,42.805,6.029,13.3043,4.60137,2470.763,2023-9-07T10:49:00Z
2023-09-07T08:49:41Z,42.805,6.029,13.3034,4.60110,2470.73,2023-9-07T10:52:03Z
2023-09-07T08:52:44Z,42.805,6.029,13.3034,4.60113,2470.73,2023-9-07T10:55:06Z
2023-09-07T08:55:47Z,42.805,6.029,13.3041,4.60114,2470.717,2023-9-07T10:58:09Z
2023-09-07T08:58:51Z,42.805,6.029,13.3031,4.60121,2470.74,2023-9-07T11:01:12Z
2023-09-07T09:01:54Z,42.805,6.029,13.3036,4.60124,2470.74,2023-9-07T11:04:15Z
2023-09-07T09:04:57Z,42.805,6.029,13.3041,4.60129,2470.763,2023-9-07T11:07:18Z
2023-09-07T09:08:00Z,42.805,6.029,13.3036,4.60124,2470.763,2023-9-07T11:10:21Z
2023-09-07T09:11:03Z,42.805,6.029,13.3046,4.60128,2470.777,2023-9-07T11:13:24Z
2023-09-07T09:14:06Z,42.805,6.029,13.3040,4.60126,2470.74,2023-9-07T11:16:27Z
2023-09-07T09:17:09Z,42.805,6.029,13.3034,4.60128,2470.763,2023-9-07T11:19:30Z
2023-09-07T09:20:12Z,42.805,6.029,13.3040,4.60123,2470.763,2023-9-07T11:22:33Z
2023-09-07T09:23:15Z,42.805,6.029,13.3036,4.60125,2470.763,2023-9-07T11:25:37Z
2023-09-07T09:26:18Z,42.805,6.029,13.3037,4.60123,2470.787,2023-9-07T11:28:40Z
2023-09-07T09:29:21Z,42.805,6.029,13.3041,4.60119,2470.74,2023-9-07T11:31:43Z
2023-09-07T09:32:24Z,42.805,6.029,13.3036,4.60111,2470.763,2023-9-07T11:34:46Z
2023-09-07T09:35:28Z,42.805,6.029,13.3048,4.60119,2470.777,2023-9-07T11:37:49Z
2023-09-07T09:38:31Z,42.805,6.029,13.3039,4.60120,2470.763,2023-9-07T11:40:52Z
2023-09-07T09:41:34Z,42.805,6.029,13.3036,4.60114,2470.754,2023-9-07T11:43:55Z
2023-09-07T09:44:37Z,42.805,6.029,13.3043,4.60116,2470.787,2023-9-07T11:46:58Z
2023-09-07T09:47:40Z,42.805,6.029,13.3040,4.60118,2470.777,2023-9-07T11:50:01Z
2023-09-07T09:50:43Z,42.805,6.029,13.3041,4.60127,2470.763,2023-9-07T11:53:04Z
2023-09-07T09:53:46Z,42.805,6.029,13.3036,4.60115,2470.777,2023-9-07T11:56:07Z
2023-09-07T09:56:49Z,42.805,6.029,13.3042,4.60114,2470.763,2023-9-07T11:59:10Z
2023-09-07T09:59:52Z,42.805,6.029,13.3035,4.60112,2470.74,2023-9-07T12:02:13Z
2023-09-07T10:02:55Z,42.805,6.029,13.3041,4.60130,2470.8,2023-9-07T12:05:17Z
2023-09-07T10:05:58Z,42.805,6.029,13.3041,4.60126,2470.787,2023-9-07T12:08:20Z
2023-09-07T10:09:01Z,42.805,6.029,13.3039,4.60123,2470.763,2023-9-07T12:11:23Z
2023-09-07T10:12:05Z,42.805,6.029,13.3036,4.60112,2470.81,2023-9-07T12:14:26Z
2023-09-07T10:15:08Z,42.805,6.029,13.3035,4.60131,2470.787,2023-9-07T12:17:29Z
2023-09-07T10:18:11Z,42.805,6.029,13.3042,4.60119,2470.787,2023-9-07T12:20:32Z
2023-09-07T10:21:14Z,42.805,6.029,13.3041,4.60117,2470.8,2023-9-07T12:23:35Z
2023-09-07T10:24:17Z,42.805,6.029,13.3037,4.60129,2470.8,2023-9-07T12:26:38Z
2023-09-07T10:27:20Z,42.805,6.029,13.3039,4.60114,2470.777,2023-9-07T12:29:41Z
2023-09-07T10:30:21Z,42.805,6.029,13.3032,4.60126,2470.787,2023-9-07T12:32:43Z
2023-09-07T10:33:25Z,42.805,6.029,13.3041,4.60123,2470.777,2023-9-07T12:35:46Z
2023-09-07T10:36:28Z,42.805,6.029,13.3031,4.60116,2470.824,2023-9-07T12:38:49Z
2023-09-07T10:39:31Z,42.805,6.029,13.3044,4.60127,2470.81,2023-9-07T12:41:52Z
2023-09-07T10:42:34Z,42.805,6.029,13.3038,4.60140,2470.8,2023-9-07T12:44:55Z
2023-09-07T10:45:37Z,42.805,6.029,13.3044,4.60125,2470.833,2023-9-07T12:47:58Z
2023-09-07T10:48:40Z,42.805,6.029,13.3045,4.60117,2470.824,2023-9-07T12:51:01Z
2023-09-07T10:51:43Z,42.805,6.029,13.3039,4.60114,2470.763,2023-9-07T12:54:04Z
2023-09-07T10:54:46Z,42.805,6.029,13.3042,4.60117,2470.824,2023-9-07T12:57:07Z
2023-09-07T10:57:49Z,42.805,6.029,13.3042,4.60130,2470.81,2023-9-07T13:00:11Z
2023-09-07T11:00:52Z,42.805,6.029,13.3039,4.60121,2470.8,2023-9-07T13:03:14Z
2023-09-07T11:03:55Z,42.805,6.029,13.3039,4.60119,2470.81,2023-9-07T13:06:17Z
2023-09-07T11:06:58Z,42.805,6.029,13.3036,4.60131,2470.787,2023-9-07T13:09:20Z
2023-09-07T11:10:02Z,42.805,6.029,13.3046,4.60117,2470.763,2023-9-07T13:12:23Z
2023-09-07T11:13:05Z,42.805,6.029,13.3040,4.60125,2470.787,2023-9-07T13:15:26Z
2023-09-07T11:16:08Z,42.805,6.029,13.3044,4.60126,2470.787,2023-9-07T13:18:29Z
2023-09-07T11:19:11Z,42.805,6.029,13.3042,4.60137,2470.787,2023-9-07T13:21:32Z
2023-09-07T11:22:14Z,42.805,6.029,13.3053,4.60146,2470.824,2023-9-07T13:24:35Z
2023-09-07T11:25:17Z,42.805,6.029,13.3038,4.60117,2470.777,2023-9-07T13:27:38Z
2023-09-07T11:28:20Z,42.805,6.029,13.3043,4.60125,2470.833,2023-9-07T13:30:41Z
2023-09-07T11:31:23Z,42.805,6.029,13.3039,4.60119,2470.787,2023-9-07T13:33:44Z
2023-09-07T11:34:26Z,42.805,6.029,13.3034,4.60117,2470.847,2023-9-07T13:36:47Z
2023-09-07T11:37:29Z,42.805,6.029,13.3041,4.60119,2470.81,2023-9-07T13:39:51Z
2023-09-07T11:40:32Z,42.805,6.029,13.3036,4.60117,2470.81,2023-9-07T13:42:54Z
2023-09-07T11:43:35Z,42.805,6.029,13.3036,4.60117,2470.8,2023-9-07T13:45:57Z
2023-09-07T11:46:39Z,42.805,6.029,13.3034,4.60116,2470.81,2023-9-07T13:49:00Z
2023-09-07T11:49:42Z,42.805,6.029,13.3040,4.60117,2470.824,2023-9-07T13:52:03Z
2023-09-07T11:52:45Z,42.805,6.029,13.3034,4.60126,2470.824,2023-9-07T13:55:06Z
2023-09-07T11:55:48Z,42.805,6.029,13.3043,4.60123,2470.833,2023-9-07T13:58:09Z
2023-09-07T11:58:51Z,42.805,6.029,13.3034,4.60132,2470.81,2023-9-07T14:01:12Z
2023-09-07T12:01:54Z,42.805,6.029,13.3035,4.60122,2470.81,2023-9-07T14:04:15Z
2023-09-07T12:04:57Z,42.805,6.029,13.3037,4.60120,2470.787,2023-9-07T14:07:18Z
2023-09-07T12:08:00Z,42.805,6.029,13.3041,4.60113,2470.824,2023-9-07T14:10:21Z
2023-09-07T12:11:03Z,42.805,6.029,13.3041,4.60125,2470.787,2023-9-07T14:13:24Z
2023-09-07T12:14:06Z,42.805,6.029,13.3048,4.60128,2470.8,2023-9-07T14:16:28Z
2023-09-07T12:17:09Z,42.805,6.029,13.3046,4.60137,2470.81,2023-9-07T14:19:31Z
2023-09-07T12:20:12Z,42.805,6.029,13.3040,4.60117,2470.81,2023-9-07T14:22:34Z
2023-09-07T12:23:15Z,42.805,6.029,13.3042,4.60123,2470.81,2023-9-07T14:25:37Z
2023-09-07T12:26:19Z,42.805,6.029,13.3036,4.60117,2470.81,2023-9-07T14:28:40Z
2023-09-07T12:29:22Z,42.805,6.029,13.3041,4.60144,2470.824,2023-9-07T14:31:43Z
2023-09-07T12:32:25Z,42.805,6.029,13.3039,4.60122,2470.81,2023-9-07T14:34:46Z
2023-09-07T12:35:28Z,42.805,6.029,13.3042,4.60137,2470.787,2023-9-07T14:37:49Z
2023-09-07T12:38:31Z,42.805,6.029,13.3037,4.60119,2470.81,2023-9-07T14:40:52Z
2023-09-07T12:41:34Z,42.805,6.029,13.3048,4.60116,2470.833,2023-9-07T14:43:55Z
2023-09-07T12:44:37Z,42.805,6.029,13.3044,4.60128,2470.824,2023-9-07T14:46:58Z
2023-09-07T12:47:40Z,42.805,6.029,13.3042,4.60133,2470.81,2023-9-07T14:50:01Z
2023-09-07T12:50:43Z,42.805,6.029,13.3039,4.60122,2470.824,2023-9-07T14:53:04Z
2023-09-07T12:53:46Z,42.805,6.029,13.3045,4.60121,2470.763,2023-9-07T14:56:08Z
2023-09-07T12:56:49Z,42.805,6.029,13.3040,4.60127,2470.81,2023-9-07T14:59:11Z
2023-09-07T12:59:52Z,42.805,6.029,13.3036,4.60111,2470.81,2023-9-07T15:02:14Z
2023-09-07T13:02:55Z,42.805,6.029,13.3034,4.60113,2470.833,2023-9-07T15:05:17Z
2023-09-07T13:05:59Z,42.805,6.029,13.3042,4.60127,2470.787,2023-9-07T15:08:20Z
2023-09-07T13:09:02Z,42.805,6.029,13.3041,4.60122,2470.81,2023-9-07T15:11:23Z
2023-09-07T13:12:05Z,42.805,6.029,13.3036,4.60122,2470.81,2023-9-07T15:14:26Z
2023-09-07T13:15:08Z,42.805,6.029,13.3036,4.60122,2470.833,2023-9-07T15:17:29Z
2023-09-07T13:18:11Z,42.805,6.029,13.3043,4.60119,2470.824,2023-9-07T15:20:32Z
2023-09-07T13:21:14Z,42.805,6.029,13.3043,4.60111,2470.824,2023-9-07T15:23:35Z
2023-09-07T13:24:17Z,42.805,6.029,13.3042,4.60133,2470.787,2023-9-07T15:26:38Z
2023-09-07T13:27:20Z,42.805,6.029,13.3036,4.60117,2470.847,2023-9-07T15:29:41Z
2023-09-07T13:30:23Z,42.805,6.029,13.3041,4.60118,2470.833,2023-9-07T15:32:45Z
2023-09-07T13:33:26Z,42.805,6.029,13.3045,4.60140,2470.787,2023-9-07T15:35:48Z
2023-09-07T13:36:29Z,42.805,6.029,13.3041,4.60123,2470.833,2023-9-07T15:38:51Z
2023-09-07T13:39:32Z,42.805,6.029,13.3041,4.60125,2470.833,2023-9-07T15:41:54Z
2023-09-07T13:42:36Z,42.805,6.029,13.3034,4.60115,2470.796,2023-9-07T15:44:57Z
2023-09-07T13:45:39Z,42.805,6.029,13.3037,4.60117,2470.763,2023-9-07T15:48:00Z
2023-09-07T13:48:42Z,42.805,6.029,13.3040,4.60118,2470.81,2023-9-07T15:51:03Z
2023-09-07T13:51:45Z,42.805,6.029,13.3048,4.60140,2470.81,2023-9-07T15:54:06Z
2023-09-07T13:54:48Z,42.805,6.029,13.3040,4.60123,2470.824,2023-9-07T15:57:09Z
2023-09-07T13:57:51Z,42.805,6.029,13.3044,4.60117,2470.81,2023-9-07T16:00:12Z
2023-09-07T14:00:54Z,42.805,6.029,13.3036,4.60116,2470.81,2023-9-07T16:03:15Z
2023-09-07T14:03:57Z,42.805,6.029,13.3043,4.60122,2470.857,2023-9-07T16:06:18Z
2023-09-07T14:07:00Z,42.805,6.029,13.3043,4.60129,2470.787,2023-9-07T16:09:21Z
2023-09-07T14:10:03Z,42.805,6.029,13.3040,4.60143,2470.833,2023-9-07T16:12:25Z
2023-09-07T14:13:06Z,42.805,6.029,13.3043,4.60132,2470.796,2023-9-07T16:15:28Z
2023-09-07T14:16:09Z,42.805,6.029,13.3043,4.60121,2470.824,2023-9-07T16:18:31Z
2023-09-07T14:19:12Z,42.805,6.029,13.3046,4.60135,2470.81,2023-9-07T16:21:34Z
2023-09-07T14:22:16Z,42.805,6.029,13.3042,4.60132,2470.81,2023-9-07T16:24:37Z
2023-09-07T14:25:19Z,42.805,6.029,13.3046,4.60136,2470.824,2023-9-07T16:27:40Z
2023-09-07T14:28:22Z,42.805,6.029,13.3046,4.60124,2470.81,2023-9-07T16:30:43Z
2023-09-07T14:31:25Z,42.805,6.029,13.3047,4.60136,2470.81,2023-9-07T16:33:46Z
2023-09-07T14:34:28Z,42.805,6.029,13.3046,4.60150,2470.847,2023-9-07T16:36:49Z
2023-09-07T14:37:31Z,42.805,6.029,13.3055,4.60129,2470.824,2023-9-07T16:39:52Z
2023-09-07T14:40:34Z,42.805,6.029,13.3050,4.60123,2470.833,2023-9-07T16:42:55Z
2023-09-07T14:43:37Z,42.805,6.029,13.3041,4.60118,2470.81,2023-9-07T16:45:58Z
2023-09-07T14:46:40Z,42.805,6.029,13.3042,4.60125,2470.81,2023-9-07T16:49:02Z
2023-09-07T14:49:43Z,42.805,6.029,13.3045,4.60140,2470.787,2023-9-07T16:52:05Z
2023-09-07T14:52:46Z,42.805,6.029,13.3047,4.60120,2470.833,2023-9-07T16:55:08Z
2023-09-07T14:55:49Z,42.805,6.029,13.3046,4.60125,2470.824,2023-9-07T16:58:11Z
2023-09-07T14:58:53Z,42.805,6.029,13.3043,4.60134,2470.81,2023-9-07T17:01:14Z
2023-09-07T15:01:56Z,42.805,6.029,13.3046,4.60116,2470.81,2023-9-07T17:04:17Z
2023-09-07T15:04:59Z,42.805,6.029,13.3046,4.60119,2470.824,2023-9-07T17:07:20Z
2023-09-07T15:08:02Z,42.805,6.029,13.3046,4.60116,2470.824,2023-9-07T17:10:23Z
2023-09-07T15:11:05Z,42.805,6.029,13.3037,4.60123,2470.81,2023-9-07T17:13:26Z
2023-09-07T15:14:08Z,42.805,6.029,13.3048,4.60134,2470.81,2023-9-07T17:16:29Z